Time,TemperatureF,DewpointF,PressureIn,WindDirection,WindDirectionDegrees,WindSpeedMPH,WindSpeedGustMPH,Humidity,HourlyPrecipIn,Conditions,Clouds,dailyrainin,SoftwareType,DateUTC
2013-03-29 00:05:00,48.9,31.1,30.14,West,268,1.0,6.0,50,0.00,,,0.00,Wunderground v.1.15,2013-03-29 07:05:00,
2013-03-29 00:10:00,48.8,29.4,30.14,WSW,253,1.0,6.0,47,0.00,,,0.00,Wunderground v.1.15,2013-03-29 07:10:00,
2013-03-29 00:15:00,48.5,28.6,30.15,NW,323,1.0,6.0,46,0.00,,,0.00,Wunderground v.1.15,2013-03-29 07:15:00,
2013-03-29 00:20:00,48.3,24.5,30.15,WNW,297,1.0,6.0,39,0.00,,,0.00,Wunderground v.1.15,2013-03-29 07:20:00,
2013-03-29 00:25:00,48.2,21.1,30.15,NW,318,1.0,6.0,34,0.00,,,0.00,Wunderground v.1.15,2013-03-29 07:25:00,
2013-03-29 00:30:00,48.1,18.1,30.15,SW,233,1.0,1.0,30,0.00,,,0.00,Wunderground v.1.15,2013-03-29 07:30:00,
2013-03-29 00:35:00,47.9,14.6,30.15,WNW,286,0.0,6.0,26,0.00,,,0.00,Wunderground v.1.15,2013-03-29 07:35:00,
2013-03-29 00:40:00,47.7,13.5,30.15,WSW,246,0.0,6.0,25,0.00,,,0.00,Wunderground v.1.15,2013-03-29 07:40:00,
2013-03-29 00:45:00,47.6,6.1,30.15,WSW,249,1.0,6.0,18,0.00,,,0.00,Wunderground v.1.15,2013-03-29 07:45:00,
2013-03-29 00:50:00,47.6,0.7,30.15,SW,231,1.0,1.0,14,0.00,,,0.00,Wunderground v.1.15,2013-03-29 07:50:00,
2013-03-29 00:55:00,47.6,-0.9,30.15,West,262,1.0,6.0,13,0.00,,,0.00,Wunderground v.1.15,2013-03-29 07:55:00,
2013-03-29 01:00:00,47.6,-0.9,30.15,West,271,1.0,6.0,13,0.00,,,0.00,Wunderground v.1.15,2013-03-29 08:00:00,
2013-03-29 01:05:00,47.6,-2.6,30.15,WSW,246,1.0,6.0,12,0.00,,,0.00,Wunderground v.1.15,2013-03-29 08:05:00,
2013-03-29 01:10:00,47.5,0.6,30.15,WSW,245,1.0,6.0,14,0.00,,,0.00,Wunderground v.1.15,2013-03-29 08:10:00,
2013-03-29 01:20:00,47.7,-2.5,30.15,SSW,207,1.0,6.0,12,0.00,,,0.00,Wunderground v.1.15,2013-03-29 08:20:00,
2013-03-29 01:25:00,47.7,0.7,30.15,SW,224,1.0,6.0,14,0.00,,,0.00,Wunderground v.1.15,2013-03-29 08:25:00,
2013-03-29 01:30:00,47.6,-2.6,30.16,NNE,26,0.0,6.0,12,0.00,,,0.00,Wunderground v.1.15,2013-03-29 08:30:00,
2013-03-29 01:35:00,47.5,-1.0,30.16,WSW,252,0.0,6.0,13,0.00,,,0.00,Wunderground v.1.15,2013-03-29 08:35:00,
2013-03-29 01:40:00,47.4,-11.1,30.16,SW,219,0.0,6.0,8,0.00,,,0.00,Wunderground v.1.15,2013-03-29 08:40:00,
2013-03-29 01:45:00,47.3,-13.9,30.16,WSW,253,1.0,6.0,7,0.00,,,0.00,Wunderground v.1.15,2013-03-29 08:45:00,
2013-03-29 01:50:00,47.2,-8.9,30.16,WSW,249,1.0,1.0,9,0.00,,,0.00,Wunderground v.1.15,2013-03-29 08:50:00,
2013-03-29 01:55:00,47.2,-8.9,30.16,WNW,297,0.0,6.0,9,0.00,,,0.00,Wunderground v.1.15,2013-03-29 08:55:00,
2013-03-29 02:00:00,47.1,-6.8,30.16,WNW,301,0.0,6.0,10,0.00,,,0.00,Wunderground v.1.15,2013-03-29 09:00:00,
2013-03-29 02:10:00,47.1,1.7,30.15,West,267,1.0,6.0,15,0.00,,,0.00,Wunderground v.1.15,2013-03-29 09:10:00,
2013-03-29 02:15:00,47.0,10.1,30.15,WNW,291,1.0,6.0,22,0.00,,,0.00,Wunderground v.1.15,2013-03-29 09:15:00,
2013-03-29 02:20:00,46.9,11.0,30.16,WSW,252,1.0,6.0,23,0.00,,,0.00,Wunderground v.1.15,2013-03-29 09:20:00,
2013-03-29 02:25:00,46.8,12.8,30.16,WSW,241,1.0,6.0,25,0.00,,,0.00,Wunderground v.1.15,2013-03-29 09:25:00,
2013-03-29 02:30:00,46.5,10.6,30.16,West,270,1.0,6.0,23,0.00,,,0.00,Wunderground v.1.15,2013-03-29 09:30:00,
2013-03-29 02:35:00,46.4,7.4,30.16,SSE,160,1.0,6.0,20,0.00,,,0.00,Wunderground v.1.15,2013-03-29 09:35:00,
2013-03-29 02:40:00,46.4,15.0,30.16,WSW,240,1.0,1.0,28,0.00,,,0.00,Wunderground v.1.15,2013-03-29 09:40:00,
2013-03-29 02:45:00,46.3,17.3,30.16,WNW,303,1.0,6.0,31,0.00,,,0.00,Wunderground v.1.15,2013-03-29 09:45:00,
2013-03-29 02:50:00,46.0,13.0,30.16,NW,314,1.0,6.0,26,0.00,,,0.00,Wunderground v.1.15,2013-03-29 09:50:00,
2013-03-29 02:55:00,45.7,11.8,30.17,West,262,1.0,6.0,25,0.00,,,0.00,Wunderground v.1.15,2013-03-29 09:55:00,
2013-03-29 03:00:00,45.5,1.8,30.17,West,264,1.0,6.0,16,0.00,,,0.00,Wunderground v.1.15,2013-03-29 10:00:00,
2013-03-29 03:05:00,45.2,0.2,30.17,WNW,284,1.0,6.0,15,0.00,,,0.00,Wunderground v.1.15,2013-03-29 10:05:00,
2013-03-29 03:10:00,45.2,-12.8,30.17,WSW,257,1.0,6.0,8,0.00,,,0.00,Wunderground v.1.15,2013-03-29 10:10:00,
2013-03-29 03:15:00,45.1,-8.4,30.17,WSW,245,1.0,6.0,10,0.00,,,0.00,Wunderground v.1.15,2013-03-29 10:15:00,
2013-03-29 03:20:00,45.0,-10.6,30.17,NNE,15,1.0,1.0,9,0.00,,,0.00,Wunderground v.1.15,2013-03-29 10:20:00,
2013-03-29 03:25:00,44.8,-15.8,30.17,West,269,1.0,2.0,7,0.00,,,0.00,Wunderground v.1.15,2013-03-29 10:25:00,
2013-03-29 03:30:00,44.6,-18.9,30.17,NNW,328,1.0,6.0,6,0.00,,,0.00,Wunderground v.1.15,2013-03-29 10:30:00,
2013-03-29 03:35:00,44.6,-39.1,30.17,West,264,1.0,6.0,2,0.00,,,0.00,Wunderground v.1.15,2013-03-29 10:35:00,
2013-03-29 03:40:00,44.7,-26.6,30.17,SW,226,1.0,6.0,4,0.00,,,0.00,Wunderground v.1.15,2013-03-29 10:40:00,
2013-03-29 03:45:00,44.8,-0.1,30.17,WNW,300,1.0,6.0,15,0.00,,,0.00,Wunderground v.1.15,2013-03-29 10:45:00,
2013-03-29 03:50:00,44.9,16.0,30.18,WNW,288,1.0,6.0,31,0.00,,,0.00,Wunderground v.1.15,2013-03-29 10:50:00,
2013-03-29 03:55:00,44.8,18.1,30.18,WNW,283,1.0,6.0,34,0.00,,,0.00,Wunderground v.1.15,2013-03-29 10:55:00,
2013-03-29 04:00:00,44.5,18.5,30.18,WSW,250,1.0,6.0,35,0.00,,,0.00,Wunderground v.1.15,2013-03-29 11:00:00,
2013-03-29 04:05:00,44.3,13.2,30.18,WSW,251,1.0,6.0,28,0.00,,,0.00,Wunderground v.1.15,2013-03-29 11:05:00,
2013-03-29 04:10:00,44.3,10.6,30.18,WNW,284,1.0,6.0,25,0.00,,,0.00,Wunderground v.1.15,2013-03-29 11:10:00,
2013-03-29 04:15:00,44.3,15.5,30.18,WSW,248,1.0,6.0,31,0.00,,,0.00,Wunderground v.1.15,2013-03-29 11:15:00,
2013-03-29 04:20:00,44.7,24.1,30.18,WSW,249,2.0,2.0,44,0.00,,,0.00,Wunderground v.1.15,2013-03-29 11:20:00,
2013-03-29 04:30:00,44.9,32.3,30.18,WNW,285,2.0,2.0,61,0.00,,,0.00,Wunderground v.1.15,2013-03-29 11:30:00,
2013-03-29 04:35:00,44.6,28.5,30.18,SW,234,1.0,6.0,53,0.00,,,0.00,Wunderground v.1.15,2013-03-29 11:35:00,
2013-03-29 04:40:00,44.1,27.6,30.19,WNW,284,0.0,6.0,52,0.00,,,0.00,Wunderground v.1.15,2013-03-29 11:40:00,
2013-03-29 04:45:00,43.7,24.8,30.18,WSW,248,0.0,6.0,47,0.00,,,0.00,Wunderground v.1.15,2013-03-29 11:45:00,
2013-03-29 04:50:00,43.2,17.4,30.19,West,263,0.0,6.0,35,0.00,,,0.00,Wunderground v.1.15,2013-03-29 11:50:00,
2013-03-29 04:55:00,42.9,11.2,30.19,West,274,0.0,6.0,27,0.00,,,0.00,Wunderground v.1.15,2013-03-29 11:55:00,
2013-03-29 05:00:00,42.7,4.3,30.19,WSW,246,0.0,6.0,20,0.00,,,0.00,Wunderground v.1.15,2013-03-29 12:00:00,
2013-03-29 05:05:00,42.5,-0.6,30.19,WSW,248,0.0,6.0,16,0.00,,,0.00,Wunderground v.1.15,2013-03-29 12:05:00,
2013-03-29 05:10:00,42.6,-12.4,30.19,WNW,287,1.0,6.0,9,0.00,,,0.00,Wunderground v.1.15,2013-03-29 12:10:00,
2013-03-29 05:15:00,42.5,-12.5,30.19,West,269,1.0,6.0,9,0.00,,,0.00,Wunderground v.1.15,2013-03-29 12:15:00,
2013-03-29 05:20:00,42.4,-12.6,30.19,WSW,246,0.0,6.0,9,0.00,,,0.00,Wunderground v.1.15,2013-03-29 12:20:00,
2013-03-29 05:25:00,42.3,-17.6,30.19,West,276,0.0,6.0,7,0.00,,,0.00,Wunderground v.1.15,2013-03-29 12:25:00,
2013-03-29 05:30:00,42.3,-20.6,30.19,West,280,1.0,1.0,6,0.00,,,0.00,Wunderground v.1.15,2013-03-29 12:30:00,
2013-03-29 05:35:00,42.2,-15.1,30.19,West,269,1.0,6.0,8,0.00,,,0.00,Wunderground v.1.15,2013-03-29 12:35:00,
2013-03-29 05:40:00,42.1,-33.6,30.20,West,277,0.0,6.0,3,0.00,,,0.00,Wunderground v.1.15,2013-03-29 12:40:00,
2013-03-29 05:45:00,42.0,-33.7,30.20,West,278,0.0,6.0,3,0.00,,,0.00,Wunderground v.1.15,2013-03-29 12:45:00,
2013-03-29 05:50:00,41.9,-33.8,30.20,West,271,0.0,6.0,3,0.00,,,0.00,Wunderground v.1.15,2013-03-29 12:50:00,
2013-03-29 05:55:00,41.9,-52.5,30.20,West,269,1.0,6.0,1,0.00,,,0.00,Wunderground v.1.15,2013-03-29 12:55:00,
2013-03-29 06:05:00,42.0,-99.9,30.20,NW,323,1.0,6.0,0,0.00,,,0.00,Wunderground v.1.15,2013-03-29 13:05:00,
2013-03-29 06:10:00,42.1,-99.9,30.20,NNW,333,1.0,6.0,0,0.00,,,0.00,Wunderground v.1.15,2013-03-29 13:10:00,
2013-03-29 06:15:00,42.2,-99.9,30.20,WSW,249,1.0,6.0,0,0.00,,,0.00,Wunderground v.1.15,2013-03-29 13:15:00,
2013-03-29 06:20:00,42.0,-99.9,30.20,WSW,250,0.0,6.0,0,0.00,,,0.00,Wunderground v.1.15,2013-03-29 13:20:00,
2013-03-29 06:25:00,42.2,-99.9,30.20,WNW,284,1.0,6.0,0,0.00,,,0.00,Wunderground v.1.15,2013-03-29 13:25:00,
2013-03-29 06:30:00,42.2,-33.6,30.20,NE,42,1.0,6.0,3,0.00,,,0.00,Wunderground v.1.15,2013-03-29 13:30:00,
2013-03-29 06:35:00,42.0,-24.3,30.20,WSW,243,1.0,6.0,5,0.00,,,0.00,Wunderground v.1.15,2013-03-29 13:35:00,
2013-03-29 06:40:00,41.8,-13.0,30.20,WSW,252,1.0,6.0,9,0.00,,,0.00,Wunderground v.1.15,2013-03-29 13:40:00,
2013-03-29 06:45:00,41.8,-24.5,30.20,East,79,1.0,6.0,5,0.00,,,0.00,Wunderground v.1.15,2013-03-29 13:45:00,
2013-03-29 06:50:00,41.7,-15.5,30.21,SW,221,1.0,6.0,8,0.00,,,0.00,Wunderground v.1.15,2013-03-29 13:50:00,
2013-03-29 07:00:00,41.8,-15.4,30.21,WSW,238,3.0,3.0,8,0.00,,,0.00,Wunderground v.1.15,2013-03-29 14:00:00,
2013-03-29 07:05:00,41.8,-10.9,30.22,WSW,242,3.0,6.0,10,0.00,,,0.00,Wunderground v.1.15,2013-03-29 14:05:00,
2013-03-29 07:10:00,42.0,-15.2,30.22,SW,226,3.0,6.0,8,0.00,,,0.00,Wunderground v.1.15,2013-03-29 14:10:00,
2013-03-29 07:15:00,42.1,-8.8,30.22,WSW,245,3.0,6.0,11,0.00,,,0.00,Wunderground v.1.15,2013-03-29 14:15:00,
2013-03-29 07:20:00,42.3,-5.2,30.22,SSW,200,3.0,3.0,13,0.00,,,0.00,Wunderground v.1.15,2013-03-29 14:20:00,
2013-03-29 07:30:00,42.4,6.2,30.23,NW,326,3.0,6.0,22,0.00,,,0.00,Wunderground v.1.15,2013-03-29 14:30:00,
2013-03-29 07:35:00,42.4,8.1,30.22,NNE,30,1.0,6.0,24,0.00,,,0.00,Wunderground v.1.15,2013-03-29 14:35:00,
2013-03-29 07:40:00,42.4,8.1,30.22,NNW,347,1.0,1.0,24,0.00,,,0.00,Wunderground v.1.15,2013-03-29 14:40:00,
2013-03-29 07:45:00,42.4,9.9,30.22,NNW,347,0.0,6.0,26,0.00,,,0.00,Wunderground v.1.15,2013-03-29 14:45:00,
2013-03-29 07:50:00,42.4,6.2,30.23,North,3,0.0,6.0,22,0.00,,,0.00,Wunderground v.1.15,2013-03-29 14:50:00,
2013-03-29 07:55:00,42.5,3.1,30.23,WSW,257,1.0,6.0,19,0.00,,,0.00,Wunderground v.1.15,2013-03-29 14:55:00,
2013-03-29 08:00:00,42.7,3.2,30.23,WNW,295,1.0,6.0,19,0.00,,,0.00,Wunderground v.1.15,2013-03-29 15:00:00,
2013-03-29 08:05:00,42.9,4.5,30.23,West,276,1.0,6.0,20,0.00,,,0.00,Wunderground v.1.15,2013-03-29 15:05:00,
2013-03-29 08:10:00,43.2,8.8,30.23,West,280,1.0,6.0,24,0.00,,,0.00,Wunderground v.1.15,2013-03-29 15:10:00,
2013-03-29 08:15:00,43.8,15.8,30.23,West,281,2.0,6.0,32,0.00,,,0.00,Wunderground v.1.15,2013-03-29 15:15:00,
2013-03-29 08:25:00,45.2,24.6,30.23,West,265,2.0,6.0,44,0.00,,,0.00,Wunderground v.1.15,2013-03-29 15:25:00,
2013-03-29 08:30:00,45.7,31.8,30.23,WNW,301,1.0,1.0,58,0.00,,,0.00,Wunderground v.1.15,2013-03-29 15:30:00,
2013-03-29 08:35:00,46.3,35.9,30.23,WSW,239,1.0,6.0,67,0.00,,,0.00,Wunderground v.1.15,2013-03-29 15:35:00,
2013-03-29 08:40:00,46.9,37.6,30.22,NW,304,1.0,1.0,70,0.00,,,0.00,Wunderground v.1.15,2013-03-29 15:40:00,
2013-03-29 08:45:00,47.2,40.4,30.22,NW,308,1.0,6.0,77,0.00,,,0.00,Wunderground v.1.15,2013-03-29 15:45:00,
2013-03-29 08:50:00,47.6,40.1,30.23,SE,143,2.0,2.0,75,0.00,,,0.00,Wunderground v.1.15,2013-03-29 15:50:00,
2013-03-29 08:55:00,48.0,41.5,30.23,West,276,2.0,6.0,78,0.00,,,0.00,Wunderground v.1.15,2013-03-29 15:55:00,
2013-03-29 09:00:00,48.5,41.6,30.23,East,99,1.0,6.0,77,0.00,,,0.00,Wunderground v.1.15,2013-03-29 16:00:00,
2013-03-29 09:05:00,49.1,43.2,30.23,SE,143,1.0,6.0,80,0.00,,,0.00,Wunderground v.1.15,2013-03-29 16:05:00,
2013-03-29 09:10:00,49.4,43.5,30.23,WNW,290,1.0,1.0,80,0.00,,,0.00,Wunderground v.1.15,2013-03-29 16:10:00,
2013-03-29 09:15:00,49.7,43.8,30.23,SSW,205,1.0,6.0,80,0.00,,,0.00,Wunderground v.1.15,2013-03-29 16:15:00,
2013-03-29 09:20:00,50.3,44.4,30.23,ESE,121,1.0,6.0,80,0.00,,,0.00,Wunderground v.1.15,2013-03-29 16:20:00,
2013-03-29 09:25:00,51.1,44.8,30.23,NE,44,1.0,6.0,79,0.00,,,0.00,Wunderground v.1.15,2013-03-29 16:25:00,
2013-03-29 09:30:00,51.1,44.8,30.23,ENE,60,1.0,6.0,79,0.00,,,0.00,Wunderground v.1.15,2013-03-29 16:30:00,
2013-03-29 09:35:00,51.8,44.5,30.23,NNW,333,1.0,6.0,76,0.00,,,0.00,Wunderground v.1.15,2013-03-29 16:35:00,
2013-03-29 09:40:00,52.1,44.8,30.23,ENE,65,1.0,6.0,76,0.00,,,0.00,Wunderground v.1.15,2013-03-29 16:40:00,
2013-03-29 09:45:00,52.4,44.7,30.23,East,82,1.0,6.0,75,0.00,,,0.00,Wunderground v.1.15,2013-03-29 16:45:00,
2013-03-29 09:50:00,53.2,45.8,30.23,NNE,15,1.0,6.0,76,0.00,,,0.00,Wunderground v.1.15,2013-03-29 16:50:00,
2013-03-29 09:55:00,53.3,45.2,30.23,NW,307,2.0,6.0,74,0.00,,,0.00,Wunderground v.1.15,2013-03-29 16:55:00,
2013-03-29 10:00:00,53.8,45.3,30.23,NW,312,2.0,6.0,73,0.00,,,0.00,Wunderground v.1.15,2013-03-29 17:00:00,
2013-03-29 10:05:00,53.9,45.4,30.23,NW,320,1.0,6.0,73,0.00,,,0.00,Wunderground v.1.15,2013-03-29 17:05:00,
2013-03-29 10:10:00,54.3,46.9,30.23,NNE,33,1.0,1.0,76,0.00,,,0.00,Wunderground v.1.15,2013-03-29 17:10:00,
2013-03-29 10:15:00,55.0,45.4,30.23,SSW,205,1.0,6.0,70,0.00,,,0.00,Wunderground v.1.15,2013-03-29 17:15:00,
2013-03-29 10:20:00,55.2,46.0,30.23,SE,124,1.0,6.0,71,0.00,,,0.00,Wunderground v.1.15,2013-03-29 17:20:00,
2013-03-29 10:25:00,55.3,44.9,30.23,ESE,111,1.0,6.0,68,0.00,,,0.00,Wunderground v.1.15,2013-03-29 17:25:00,
2013-03-29 10:30:00,55.7,44.9,30.23,ESE,121,1.0,6.0,67,0.00,,,0.00,Wunderground v.1.15,2013-03-29 17:30:00,
2013-03-29 10:35:00,55.5,45.9,30.23,SSE,158,2.0,6.0,70,0.00,,,0.00,Wunderground v.1.15,2013-03-29 17:35:00,
2013-03-29 10:40:00,55.6,44.8,30.23,SSE,149,2.0,2.0,67,0.00,,,0.00,Wunderground v.1.15,2013-03-29 17:40:00,
2013-03-29 10:45:00,56.0,46.4,30.23,ESE,117,1.0,6.0,70,0.00,,,0.00,Wunderground v.1.15,2013-03-29 17:45:00,
2013-03-29 10:50:00,56.2,46.5,30.23,SW,214,1.0,6.0,70,0.00,,,0.00,Wunderground v.1.15,2013-03-29 17:50:00,
2013-03-29 10:55:00,55.8,47.3,30.23,South,170,2.0,6.0,73,0.00,,,0.00,Wunderground v.1.15,2013-03-29 17:55:00,
2013-03-29 11:00:00,55.7,46.1,30.23,SSE,163,3.0,3.0,70,0.00,,,0.00,Wunderground v.1.15,2013-03-29 18:00:00,
2013-03-29 11:05:00,56.1,47.6,30.23,SW,225,2.0,6.0,73,0.00,,,0.00,Wunderground v.1.15,2013-03-29 18:05:00,
2013-03-29 11:15:00,56.1,46.4,30.23,SE,143,2.0,6.0,70,0.00,,,0.00,Wunderground v.1.15,2013-03-29 18:15:00,
2013-03-29 11:20:00,56.6,46.9,30.23,SW,217,2.0,6.0,70,0.00,,,0.00,Wunderground v.1.15,2013-03-29 18:20:00,
2013-03-29 11:25:00,56.8,46.3,30.23,SSW,212,2.0,6.0,68,0.00,,,0.00,Wunderground v.1.15,2013-03-29 18:25:00,
2013-03-29 11:30:00,57.1,46.6,30.23,SW,231,1.0,1.0,68,0.00,,,0.00,Wunderground v.1.15,2013-03-29 18:30:00,
2013-03-29 11:35:00,57.7,47.2,30.23,SSE,155,1.0,2.0,68,0.00,,,0.00,Wunderground v.1.15,2013-03-29 18:35:00,
2013-03-29 11:45:00,58.4,47.1,30.22,East,93,2.0,6.0,66,0.00,,,0.00,Wunderground v.1.15,2013-03-29 18:45:00,
2013-03-29 11:50:00,58.4,47.5,30.23,SE,143,2.0,6.0,67,0.00,,,0.00,Wunderground v.1.15,2013-03-29 18:50:00,
2013-03-29 11:55:00,58.7,47.4,30.23,SSE,149,2.0,6.0,66,0.00,,,0.00,Wunderground v.1.15,2013-03-29 18:55:00,
2013-03-29 12:00:00,59.1,46.9,30.23,WSW,252,2.0,6.0,64,0.00,,,0.00,Wunderground v.1.15,2013-03-29 19:00:00,
2013-03-29 12:05:00,59.2,49.0,30.23,SW,218,3.0,6.0,69,0.00,,,0.00,Wunderground v.1.15,2013-03-29 19:05:00,
2013-03-29 12:10:00,59.7,47.9,30.22,SSW,203,3.0,3.0,65,0.00,,,0.00,Wunderground v.1.15,2013-03-29 19:10:00,
2013-03-29 12:15:00,60.1,48.7,30.22,SSE,160,3.0,6.0,66,0.00,,,0.00,Wunderground v.1.15,2013-03-29 19:15:00,
2013-03-29 12:20:00,60.1,47.9,30.22,SW,217,3.0,3.0,64,0.00,,,0.00,Wunderground v.1.15,2013-03-29 19:20:00,
2013-03-29 12:25:00,60.1,48.3,30.22,South,184,3.0,6.0,65,0.00,,,0.00,Wunderground v.1.15,2013-03-29 19:25:00,
2013-03-29 12:35:00,61.1,48.4,30.22,SW,231,3.0,6.0,63,0.00,,,0.00,Wunderground v.1.15,2013-03-29 19:35:00,
2013-03-29 12:40:00,60.5,49.1,30.22,SSW,204,3.0,3.0,66,0.00,,,0.00,Wunderground v.1.15,2013-03-29 19:40:00,
2013-03-29 12:45:00,60.7,49.7,30.22,South,181,2.0,6.0,67,0.00,,,0.00,Wunderground v.1.15,2013-03-29 19:45:00,
2013-03-29 12:50:00,61.3,49.8,30.22,SSW,199,3.0,3.0,66,0.00,,,0.00,Wunderground v.1.15,2013-03-29 19:50:00,
2013-03-29 12:55:00,61.2,50.2,30.22,SW,222,3.0,6.0,67,0.00,,,0.00,Wunderground v.1.15,2013-03-29 19:55:00,
2013-03-29 13:00:00,61.9,50.0,30.22,NE,38,2.0,6.0,65,0.00,,,0.00,Wunderground v.1.15,2013-03-29 20:00:00,
2013-03-29 13:05:00,62.0,48.8,30.22,NW,312,2.0,6.0,62,0.00,,,0.00,Wunderground v.1.15,2013-03-29 20:05:00,
2013-03-29 13:10:00,61.3,50.2,30.22,WNW,303,1.0,6.0,67,0.00,,,0.00,Wunderground v.1.15,2013-03-29 20:10:00,
2013-03-29 13:15:00,60.6,48.8,30.22,West,278,1.0,6.0,65,0.00,,,0.00,Wunderground v.1.15,2013-03-29 20:15:00,
2013-03-29 13:20:00,60.0,49.0,30.22,NW,318,1.0,6.0,67,0.00,,,0.00,Wunderground v.1.15,2013-03-29 20:20:00,
2013-03-29 13:25:00,59.7,48.3,30.22,NNE,12,1.0,6.0,66,0.00,,,0.00,Wunderground v.1.15,2013-03-29 20:25:00,
2013-03-29 13:30:00,59.9,48.5,30.22,WNW,301,1.0,1.0,66,0.00,,,0.00,Wunderground v.1.15,2013-03-29 20:30:00,
2013-03-29 13:35:00,59.8,48.8,30.22,WNW,294,1.0,6.0,67,0.00,,,0.00,Wunderground v.1.15,2013-03-29 20:35:00,
2013-03-29 13:40:00,60.6,50.8,30.22,WSW,248,1.0,6.0,70,0.00,,,0.00,Wunderground v.1.15,2013-03-29 20:40:00,
2013-03-29 13:45:00,61.0,49.1,30.22,NW,316,1.0,6.0,65,0.00,,,0.00,Wunderground v.1.15,2013-03-29 20:45:00,
2013-03-29 13:50:00,60.7,48.0,30.22,South,186,2.0,6.0,63,0.00,,,0.00,Wunderground v.1.15,2013-03-29 20:50:00,
2013-03-29 13:55:00,60.1,47.5,30.22,WNW,285,2.0,6.0,63,0.00,,,0.00,Wunderground v.1.15,2013-03-29 20:55:00,
2013-03-29 14:00:00,60.8,49.0,30.22,SE,141,2.0,6.0,65,0.00,,,0.00,Wunderground v.1.15,2013-03-29 21:00:00,
2013-03-29 14:05:00,61.6,49.3,30.22,WSW,248,2.0,6.0,64,0.00,,,0.00,Wunderground v.1.15,2013-03-29 21:05:00,
2013-03-29 14:10:00,62.3,49.1,30.22,SW,231,2.0,2.0,62,0.00,,,0.00,Wunderground v.1.15,2013-03-29 21:10:00,
2013-03-29 14:15:00,61.5,47.5,30.22,SW,221,2.0,3.0,60,0.00,,,0.00,Wunderground v.1.15,2013-03-29 21:15:00,
2013-03-29 14:20:00,61.0,48.3,30.21,WSW,257,2.0,2.0,63,0.00,,,0.00,Wunderground v.1.15,2013-03-29 21:20:00,
2013-03-29 14:25:00,61.9,50.8,30.21,WSW,239,2.0,5.0,67,0.00,,,0.00,Wunderground v.1.15,2013-03-29 21:25:00,
2013-03-29 14:30:00,62.6,49.8,30.21,WSW,251,1.0,6.0,63,0.00,,,0.00,Wunderground v.1.15,2013-03-29 21:30:00,
2013-03-29 14:35:00,63.9,50.2,30.21,WNW,303,1.0,6.0,61,0.00,,,0.00,Wunderground v.1.15,2013-03-29 21:35:00,
2013-03-29 14:40:00,63.7,49.1,30.20,WSW,242,1.0,6.0,59,0.00,,,0.00,Wunderground v.1.15,2013-03-29 21:40:00,
2013-03-29 14:45:00,62.7,48.2,30.20,ENE,74,1.0,6.0,59,0.00,,,0.00,Wunderground v.1.15,2013-03-29 21:45:00,
2013-03-29 14:50:00,61.8,48.6,30.20,SSW,199,1.0,6.0,62,0.00,,,0.00,Wunderground v.1.15,2013-03-29 21:50:00,
2013-03-29 14:55:00,61.6,49.3,30.20,SW,229,1.0,6.0,64,0.00,,,0.00,Wunderground v.1.15,2013-03-29 21:55:00,
2013-03-29 15:00:00,62.2,50.3,30.20,SSW,197,2.0,2.0,65,0.00,,,0.00,Wunderground v.1.15,2013-03-29 22:00:00,
2013-03-29 15:05:00,63.1,49.0,30.20,SW,236,2.0,3.0,60,0.00,,,0.00,Wunderground v.1.15,2013-03-29 22:05:00,
2013-03-29 15:10:00,63.6,49.5,30.20,West,271,2.0,2.0,60,0.00,,,0.00,Wunderground v.1.15,2013-03-29 22:10:00,
2013-03-29 15:15:00,63.3,49.2,30.20,NW,304,2.0,6.0,60,0.00,,,0.00,Wunderground v.1.15,2013-03-29 22:15:00,
2013-03-29 15:20:00,63.1,47.6,30.20,NNW,347,2.0,2.0,57,0.00,,,0.00,Wunderground v.1.15,2013-03-29 22:20:00,
2013-03-29 15:30:00,64.1,49.9,30.20,West,262,1.0,6.0,60,0.00,,,0.00,Wunderground v.1.15,2013-03-29 22:30:00,
2013-03-29 15:35:00,64.3,49.2,30.19,SW,227,1.0,6.0,58,0.00,,,0.00,Wunderground v.1.15,2013-03-29 22:35:00,
2013-03-29 15:40:00,64.1,48.1,30.19,WSW,256,2.0,6.0,56,0.00,,,0.00,Wunderground v.1.15,2013-03-29 22:40:00,
2013-03-29 15:45:00,63.9,48.8,30.19,SSE,163,2.0,6.0,58,0.00,,,0.00,Wunderground v.1.15,2013-03-29 22:45:00,
2013-03-29 15:50:00,64.4,50.2,30.19,North,359,1.0,6.0,60,0.00,,,0.00,Wunderground v.1.15,2013-03-29 22:50:00,
2013-03-29 15:55:00,64.4,47.9,30.19,SW,218,1.0,6.0,55,0.00,,,0.00,Wunderground v.1.15,2013-03-29 22:55:00,
2013-03-29 16:00:00,64.5,48.9,30.19,SE,136,2.0,2.0,57,0.00,,,0.00,Wunderground v.1.15,2013-03-29 23:00:00,
2013-03-29 16:05:00,64.5,48.0,30.19,WSW,239,2.0,3.0,55,0.00,,,0.00,Wunderground v.1.15,2013-03-29 23:05:00,
2013-03-29 16:10:00,64.5,48.9,30.19,West,269,2.0,2.0,57,0.00,,,0.00,Wunderground v.1.15,2013-03-29 23:10:00,
2013-03-29 16:15:00,64.8,48.2,30.19,WSW,251,2.0,4.0,55,0.00,,,0.00,Wunderground v.1.15,2013-03-29 23:15:00,
2013-03-29 16:20:00,64.8,47.8,30.19,North,359,1.0,6.0,54,0.00,,,0.00,Wunderground v.1.15,2013-03-29 23:20:00,
2013-03-29 16:25:00,64.5,48.0,30.19,SSW,211,1.0,6.0,55,0.00,,,0.00,Wunderground v.1.15,2013-03-29 23:25:00,
2013-03-29 16:30:00,64.4,47.9,30.18,ESE,115,2.0,2.0,55,0.00,,,0.00,Wunderground v.1.15,2013-03-29 23:30:00,
2013-03-29 16:40:00,65.1,47.0,30.18,NNW,345,1.0,6.0,52,0.00,,,0.00,Wunderground v.1.15,2013-03-29 23:40:00,
2013-03-29 16:45:00,64.3,46.8,30.19,North,352,2.0,6.0,53,0.00,,,0.00,Wunderground v.1.15,2013-03-29 23:45:00,
2013-03-29 16:50:00,64.1,47.1,30.18,NNW,331,2.0,6.0,54,0.00,,,0.00,Wunderground v.1.15,2013-03-29 23:50:00,
2013-03-29 16:55:00,64.2,49.1,30.18,WSW,239,1.0,6.0,58,0.00,,,0.00,Wunderground v.1.15,2013-03-29 23:55:00,
2013-03-29 17:05:00,64.2,48.2,30.19,WSW,239,1.0,2.0,56,0.00,,,0.00,Wunderground v.1.15,2013-03-30 00:05:00,
2013-03-29 17:10:00,63.9,47.4,30.18,NNE,13,2.0,2.0,55,0.00,,,0.00,Wunderground v.1.15,2013-03-30 00:10:00,
2013-03-29 17:15:00,64.1,49.5,30.19,NNW,335,2.0,6.0,59,0.00,,,0.00,Wunderground v.1.15,2013-03-30 00:15:00,
2013-03-29 17:20:00,63.8,48.3,30.19,NW,311,1.0,1.0,57,0.00,,,0.00,Wunderground v.1.15,2013-03-30 00:20:00,
2013-03-29 17:25:00,63.9,47.9,30.19,WNW,295,1.0,6.0,56,0.00,,,0.00,Wunderground v.1.15,2013-03-30 00:25:00,
2013-03-29 17:30:00,63.4,46.5,30.19,North,349,1.0,6.0,54,0.00,,,0.00,Wunderground v.1.15,2013-03-30 00:30:00,
2013-03-29 17:35:00,63.2,47.7,30.19,NW,318,1.0,6.0,57,0.00,,,0.00,Wunderground v.1.15,2013-03-30 00:35:00,
2013-03-29 17:40:00,63.2,47.2,30.18,NW,304,1.0,6.0,56,0.00,,,0.00,Wunderground v.1.15,2013-03-30 00:40:00,
2013-03-29 17:45:00,63.1,48.1,30.18,WNW,294,1.0,6.0,58,0.00,,,0.00,Wunderground v.1.15,2013-03-30 00:45:00,
2013-03-29 17:55:00,62.6,47.1,30.19,NW,326,1.0,2.0,57,0.00,,,0.00,Wunderground v.1.15,2013-03-30 00:55:00,
2013-03-29 18:00:00,62.0,48.0,30.18,WNW,283,1.0,6.0,60,0.00,,,0.00,Wunderground v.1.15,2013-03-30 01:00:00,
2013-03-29 18:05:00,61.8,48.2,30.18,West,264,1.0,6.0,61,0.00,,,0.00,Wunderground v.1.15,2013-03-30 01:05:00,
2013-03-29 18:10:00,61.0,47.4,30.18,South,177,1.0,1.0,61,0.00,,,0.00,Wunderground v.1.15,2013-03-30 01:10:00,
2013-03-29 18:15:00,60.5,47.0,30.18,NW,314,1.0,6.0,61,0.00,,,0.00,Wunderground v.1.15,2013-03-30 01:15:00,
2013-03-29 18:20:00,60.3,46.4,30.18,WNW,294,1.0,6.0,60,0.00,,,0.00,Wunderground v.1.15,2013-03-30 01:20:00,
2013-03-29 18:25:00,60.3,46.8,30.18,North,4,1.0,6.0,61,0.00,,,0.00,Wunderground v.1.15,2013-03-30 01:25:00,
2013-03-29 18:30:00,60.3,46.4,30.18,WNW,297,1.0,6.0,60,0.00,,,0.00,Wunderground v.1.15,2013-03-30 01:30:00,
2013-03-29 18:35:00,60.0,46.5,30.18,WNW,287,1.0,6.0,61,0.00,,,0.00,Wunderground v.1.15,2013-03-30 01:35:00,
2013-03-29 18:40:00,59.7,45.8,30.18,NW,319,1.0,6.0,60,0.00,,,0.00,Wunderground v.1.15,2013-03-30 01:40:00,
2013-03-29 18:50:00,59.0,46.0,30.18,WNW,290,1.0,6.0,62,0.00,,,0.00,Wunderground v.1.15,2013-03-30 01:50:00,
2013-03-29 18:55:00,58.8,46.2,30.18,WNW,290,0.0,6.0,63,0.00,,,0.00,Wunderground v.1.15,2013-03-30 01:55:00,
2013-03-29 19:00:00,58.3,46.2,30.18,WNW,290,0.0,6.0,64,0.00,,,0.00,Wunderground v.1.15,2013-03-30 02:00:00,
2013-03-29 19:05:00,57.4,46.5,30.18,WNW,298,0.0,6.0,67,0.00,,,0.00,Wunderground v.1.15,2013-03-30 02:05:00,
2013-03-29 19:10:00,56.4,46.4,30.18,WNW,297,0.0,6.0,69,0.00,,,0.00,Wunderground v.1.15,2013-03-30 02:10:00,
2013-03-29 19:15:00,55.5,47.0,30.18,WNW,301,0.0,6.0,73,0.00,,,0.00,Wunderground v.1.15,2013-03-30 02:15:00,
2013-03-29 19:20:00,54.7,46.9,30.18,WNW,301,1.0,6.0,75,0.00,,,0.00,Wunderground v.1.15,2013-03-30 02:20:00,
2013-03-29 19:25:00,53.9,46.5,30.18,NW,312,1.0,6.0,76,0.00,,,0.00,Wunderground v.1.15,2013-03-30 02:25:00,
2013-03-29 19:30:00,53.3,46.3,30.18,NW,318,0.0,6.0,77,0.00,,,0.00,Wunderground v.1.15,2013-03-30 02:30:00,
2013-03-29 19:35:00,52.7,46.0,30.18,NNE,30,0.0,6.0,78,0.00,,,0.00,Wunderground v.1.15,2013-03-30 02:35:00,
2013-03-29 19:40:00,52.2,45.9,30.18,NNE,25,1.0,6.0,79,0.00,,,0.00,Wunderground v.1.15,2013-03-30 02:40:00,
2013-03-29 19:45:00,51.7,45.4,30.19,NNW,345,1.0,6.0,79,0.00,,,0.00,Wunderground v.1.15,2013-03-30 02:45:00,
2013-03-29 19:50:00,51.2,44.9,30.19,North,5,1.0,6.0,79,0.00,,,0.00,Wunderground v.1.15,2013-03-30 02:50:00,
2013-03-29 19:55:00,50.6,44.3,30.19,North,5,1.0,6.0,79,0.00,,,0.00,Wunderground v.1.15,2013-03-30 02:55:00,
2013-03-29 20:00:00,50.1,43.5,30.19,North,5,0.0,6.0,78,0.00,,,0.00,Wunderground v.1.15,2013-03-30 03:00:00,
2013-03-29 20:05:00,49.5,42.6,30.19,North,5,0.0,6.0,77,0.00,,,0.00,Wunderground v.1.15,2013-03-30 03:05:00,
2013-03-29 20:10:00,49.1,41.5,30.19,North,5,0.0,6.0,75,0.00,,,0.00,Wunderground v.1.15,2013-03-30 03:10:00,
2013-03-29 20:15:00,48.7,40.4,30.19,North,5,1.0,6.0,73,0.00,,,0.00,Wunderground v.1.15,2013-03-30 03:15:00,
2013-03-29 20:20:00,48.3,39.0,30.20,North,5,1.0,6.0,70,0.00,,,0.00,Wunderground v.1.15,2013-03-30 03:20:00,
2013-03-29 20:25:00,48.0,37.9,30.20,North,5,1.0,6.0,68,0.00,,,0.00,Wunderground v.1.15,2013-03-30 03:25:00,
2013-03-29 20:35:00,47.4,35.8,30.20,North,5,1.0,6.0,64,0.00,,,0.00,Wunderground v.1.15,2013-03-30 03:35:00,
2013-03-29 20:40:00,47.1,33.9,30.20,North,4,1.0,1.0,60,0.00,,,0.00,Wunderground v.1.15,2013-03-30 03:40:00,
2013-03-29 20:45:00,46.9,32.0,30.21,North,5,1.0,6.0,56,0.00,,,0.00,Wunderground v.1.15,2013-03-30 03:45:00,
2013-03-29 20:50:00,46.6,32.2,30.21,North,5,0.0,6.0,57,0.00,,,0.00,Wunderground v.1.15,2013-03-30 03:50:00,
2013-03-29 20:55:00,46.3,30.5,30.21,North,5,0.0,6.0,54,0.00,,,0.00,Wunderground v.1.15,2013-03-30 03:55:00,
2013-03-29 21:00:00,46.1,29.0,30.21,North,5,0.0,6.0,51,0.00,,,0.00,Wunderground v.1.15,2013-03-30 04:00:00,
2013-03-29 21:05:00,45.8,28.7,30.22,North,5,0.0,6.0,51,0.00,,,0.00,Wunderground v.1.15,2013-03-30 04:05:00,
2013-03-29 21:10:00,45.5,26.9,30.21,North,5,1.0,6.0,48,0.00,,,0.00,Wunderground v.1.15,2013-03-30 04:10:00,
2013-03-29 21:15:00,45.4,22.5,30.21,North,5,1.0,6.0,40,0.00,,,0.00,Wunderground v.1.15,2013-03-30 04:15:00,
2013-03-29 21:20:00,45.3,21.2,30.22,North,5,1.0,1.0,38,0.00,,,0.00,Wunderground v.1.15,2013-03-30 04:20:00,
2013-03-29 21:25:00,45.1,19.0,30.22,North,5,1.0,6.0,35,0.00,,,0.00,Wunderground v.1.15,2013-03-30 04:25:00,
2013-03-29 21:30:00,44.9,23.2,30.22,North,5,0.0,6.0,42,0.00,,,0.00,Wunderground v.1.15,2013-03-30 04:30:00,
2013-03-29 21:35:00,44.6,21.7,30.22,North,5,0.0,6.0,40,0.00,,,0.00,Wunderground v.1.15,2013-03-30 04:35:00,
2013-03-29 21:40:00,44.3,20.9,30.22,North,4,0.0,6.0,39,0.00,,,0.00,Wunderground v.1.15,2013-03-30 04:40:00,
2013-03-29 21:45:00,44.0,18.7,30.22,North,5,0.0,6.0,36,0.00,,,0.00,Wunderground v.1.15,2013-03-30 04:45:00,
2013-03-29 21:55:00,43.9,-0.9,30.22,NNE,20,1.0,6.0,15,0.00,,,0.00,Wunderground v.1.15,2013-03-30 04:55:00,
2013-03-29 22:00:00,43.9,4.2,30.22,NNE,25,1.0,6.0,19,0.00,,,0.00,Wunderground v.1.15,2013-03-30 05:00:00,
2013-03-29 22:05:00,43.7,10.1,30.22,North,360,1.0,6.0,25,0.00,,,0.00,Wunderground v.1.15,2013-03-30 05:05:00,
2013-03-29 22:10:00,44.3,-32.1,30.22,NNE,13,1.0,6.0,3,0.00,,,0.00,Wunderground v.1.15,2013-03-30 05:10:00,
2013-03-29 22:20:00,46.1,-49.9,30.23,NE,43,1.0,6.0,1,0.00,,,0.00,Wunderground v.1.15,2013-03-30 05:20:00,
2013-03-29 22:25:00,46.6,-49.6,30.22,NNE,31,1.0,6.0,1,0.00,,,0.00,Wunderground v.1.15,2013-03-30 05:25:00,
2013-03-29 22:30:00,46.9,31.1,30.23,WSW,238,1.0,1.0,54,0.00,,,0.00,Wunderground v.1.15,2013-03-30 05:30:00,
2013-03-29 22:35:00,46.8,34.9,30.23,WSW,238,0.0,6.0,63,0.00,,,0.00,Wunderground v.1.15,2013-03-30 05:35:00,
2013-03-29 22:40:00,46.6,31.7,30.23,West,271,0.0,6.0,56,0.00,,,0.00,Wunderground v.1.15,2013-03-30 05:40:00,
2013-03-29 22:45:00,46.9,33.3,30.23,WNW,290,1.0,6.0,59,0.00,,,0.00,Wunderground v.1.15,2013-03-30 05:45:00,
2013-03-29 22:50:00,47.1,35.9,30.23,West,277,1.0,6.0,65,0.00,,,0.00,Wunderground v.1.15,2013-03-30 05:50:00,
2013-03-29 22:55:00,46.9,37.3,30.23,WSW,257,1.0,6.0,69,0.00,,,0.00,Wunderground v.1.15,2013-03-30 05:55:00,
2013-03-29 23:00:00,47.1,37.1,30.23,WNW,283,0.0,6.0,68,0.00,,,0.00,Wunderground v.1.15,2013-03-30 06:00:00,
2013-03-29 23:05:00,47.0,37.4,30.23,WNW,295,0.0,6.0,69,0.00,,,0.00,Wunderground v.1.15,2013-03-30 06:05:00,
2013-03-29 23:10:00,46.7,37.4,30.23,NE,45,0.0,6.0,70,0.00,,,0.00,Wunderground v.1.15,2013-03-30 06:10:00,
2013-03-29 23:15:00,46.3,35.6,30.23,NE,47,0.0,6.0,66,0.00,,,0.00,Wunderground v.1.15,2013-03-30 06:15:00,
2013-03-29 23:20:00,46.5,35.4,30.23,West,263,1.0,6.0,65,0.00,,,0.00,Wunderground v.1.15,2013-03-30 06:20:00,
2013-03-29 23:25:00,46.6,37.0,30.23,NW,309,1.0,6.0,69,0.00,,,0.00,Wunderground v.1.15,2013-03-30 06:25:00,
2013-03-29 23:30:00,46.4,37.5,30.23,West,262,1.0,6.0,71,0.00,,,0.00,Wunderground v.1.15,2013-03-30 06:30:00,
2013-03-29 23:35:00,46.3,37.0,30.23,SW,228,1.0,6.0,70,0.00,,,0.00,Wunderground v.1.15,2013-03-30 06:35:00,
2013-03-29 23:40:00,46.1,37.6,30.23,North,10,1.0,6.0,72,0.00,,,0.00,Wunderground v.1.15,2013-03-30 06:40:00,
2013-03-29 23:45:00,45.7,36.1,30.23,ENE,64,0.0,6.0,69,0.00,,,0.00,Wunderground v.1.15,2013-03-30 06:45:00,
2013-03-29 23:50:00,45.5,34.8,30.23,NW,323,0.0,6.0,66,0.00,,,0.00,Wunderground v.1.15,2013-03-30 06:50:00,
2013-03-29 23:55:00,45.4,33.9,30.23,East,87,1.0,6.0,64,0.00,,,0.00,Wunderground v.1.15,2013-03-30 06:55:00,